Weather Roundup
Issued by NWS

Home | Current Version | Previous Version | Graphics & Text | Print | Product List | Glossary Off
Versions: 1 2 3 4 5 6 7 8 9 10 11 12 13 14 15 16 17 18 19 20 21 22 23 24 25 26 27 28 29 30 31 32 33 34 35 36 37 38 39 40 41 42 43 44 45 46 47 48 49 50

747
NZUS93 KARX 230510
HRRWXR

CURRENT HOURLY OBSERVATIONS ACROSS
MUCH OF THE UPPER MISSISSIPPI VALLEY
NATIONAL WEATHER SERVICE LA CROSSE WI
1200 AM CDT SAT JUL 23 2016


...SOUTHEAST MINNESOTA...


CITY           SKY/WX    TMP DP  RH WIND       PRES   REMARKS
ROCHESTER      MOCLDY    80  78  94 S6        30.01F
ROCHESTER/MAYO FAIR      79  74  83 E8        30.01S
WINONA         CLOUDY    73  72  94 CALM      29.99S
AUSTIN         PTCLDY    77  75  94 E3        30.00S
ALBERT LEA     CLOUDY    81  77  89 SE6       29.99F
DODGE CENTER   PTCLDY    75  70  83 CALM      30.01S
PRESTON        PTCLDY    77  74  91 CALM      30.03R
OWATONNA       CLOUDY    79  70  73 SE3       29.99F
FARIBAULT      MOCLDY    79  68  69 SE7       29.98F
$$

...ELSEWHERE IN MINNESOTA...


CITY           SKY/WX    TMP DP  RH WIND       PRES   REMARKS
MINNEAPOLIS    MOCLDY    83  64  52 E6        29.96F
INTNL FALLS    CLOUDY    58  57  97 CALM      30.01R
DULUTH         CLOUDY    71  59  65 N6        30.02R
RED WING       CLOUDY    70  66  88 CALM      29.97S
REDWOOD FALLS  MOCLDY    78  68  71 E5        29.96S
MANKATO        MOCLDY    79  70  73 SE9       29.97F
WORTHINGTON    MOCLDY    79  78  97 E6        29.98S
FAIRMONT       PTCLDY    79  48  34 E6        29.95F
$$

...SOUTHWEST WISCONSIN...


CITY           SKY/WX    TMP DP  RH WIND       PRES   REMARKS
LA CROSSE      MOCLDY    80  75  84 E3        29.98S
PRAIRIE DU CHI CLEAR     77  75  92 CALM      29.99S
BOSCOBEL       FOG       78  76  93 CALM      29.99S VSB 3/4
LONE ROCK      CLEAR     76  74  93 NE3       30.00R
PLATTEVILLE    CLEAR     77  77 100 S3        30.02R
FORT MC COY    CLEAR     70  69  99 CALM      30.02R
CAMP DOUGLAS   FOG       67  67  99 CALM      30.00S VSB 1/2
MAUSTON-NEW LI CLEAR     73  73  99 CALM      30.00R FOG
VIROQUA        FAIR      77  77  99 CALM      30.03R
WIS DELLS      CLEAR     78  75  92 CALM      30.00S FOG
$$

...ELSEWHERE IN WISCONSIN...


CITY           SKY/WX    TMP DP  RH WIND       PRES   REMARKS
MILWAUKEE      PTCLDY    80  71  74 CALM      29.99R
MADISON        CLEAR     79  77  94 CALM      29.99S
GREEN BAY      CLEAR     73  71  93 W7        29.97R
EAU CLAIRE     PTCLDY    71  69  93 CALM      29.98S
BLACK RVR FLS  FAIR      66  66 100 CALM      29.99S
MEDFORD        PTCLDY    64  64 100 CALM      30.02F
WAUSAU         CLEAR     72  67  84 CALM      30.00R
WIS RAPIDS     CLEAR     71  66  84 CALM      30.01S
MARSHFIELD     CLEAR     71  66  84 CALM      30.01R
RICE LAKE      FOG       68  66  95 CALM      30.02S VSB 1/4
$$

...NORTHEAST IOWA...


CITY           SKY/WX    TMP DP  RH WIND       PRES   REMARKS
WATERLOO       PTCLDY    77  75  93 E5        29.98S
DUBUQUE        CLEAR     77  75  93 CALM      30.01S
DECORAH        PTCLDY    77  77 100 CALM      30.00F
MASON CITY     PTCLDY    78  77  96 E6        29.99F
CHARLES CITY   CLOUDY    77  77 100 E3        30.00S
OELWEIN        PTCLDY    77  77 100 SE3       30.01S FOG
$$

...ELSEWHERE IN IOWA...


CITY           SKY/WX    TMP DP  RH WIND       PRES   REMARKS
DES MOINES     PTCLDY    83  77  82 SE6       29.95S HX  92
IOWA CITY      PTCLDY    79  77  94 SE5       30.00R
FORT DODGE     PTCLDY    81  79  94 SE8       29.96F
MARSHALLTOWN   CLEAR     77  76  96 E6        29.98S
CEDAR RAPIDS   CLEAR     77  77 100 SE3       29.99R
$$

...NORTHERN ILLINOIS...


CITY           SKY/WX    TMP DP  RH WIND       PRES   REMARKS
CHICAGO-OHARE  MOCLDY    82  76  81 CALM      29.98S
CHICAGO-MIDWAY MOCLDY    83  75  77 SW9       29.99R HX  90
MOLINE         PTCLDY    80  75  84 CALM      29.99R
ROCKFORD       CLEAR     79  75  87 CALM      30.01R
PEORIA         CLOUDY    79  77  94 S6        30.01R
$$

NOTE: "FAIR" INDICATES FEW OR NO CLOUDS BELOW 12,000 FEET WITH NO
SIGNIFICANT WEATHER AND/OR OBSTRUCTIONS TO VISIBILITY. WIND
SPEEDS ARE IN MILES-PER-HOUR.




USA.gov is the U.S. government's official web portal to all federal, state and local government web resources and services.